Regional Weather Roundup
Issued by NWS

Home | Current Version | Previous Version | Text Only | Print | Product List | Glossary On
Versions: 1 2 3 4 5 6 7 8 9 10 11 12 13 14 15 16 17 18 19 20 21 22 23 24 25 26 27 28 29 30 31 32 33 34 35 36 37 38 39 40 41 42 43 44 45 46 47 48 49 50
000
ASUS43 KMKX 260010
RWRWI

WISCONSIN REGIONAL WEATHER ROUNDUP
NATIONAL WEATHER SERVICE MILWAUKEE/SULLIVAN WI
700 PM CDT MON MAY 25 2015

NOTE: "FAIR" INDICATES FEW OR NO CLOUDS BELOW 12,000 FEET WITH NO
SIGNIFICANT WEATHER AND/OR OBSTRUCTIONS TO VISIBILITY.

WIZ001-002-006>008-014>016-023>028-260100-
NORTHWEST WISCONSIN

CITY           SKY/WX    TMP DP  RH WIND       PRES   REMARKS
SUPERIOR ARPT  DRIZZLE   45  45  99 CALM      29.75S
ASHLAND        CLOUDY    54  53  97 N7        29.74R
6HR MIN TEMP:  53; 6HR MAX TEMP:  60;

HAYWARD        CLOUDY    65  56  72 S7        29.73F
6HR MIN TEMP:  61; 6HR MAX TEMP:  66; 6HR PCP: TRACE;

SIREN          PTSUNNY   67  57  71 SW7       29.72S
CUMBERLAND     PTSUNNY   66  57  72 SW10      29.74S
RICE LAKE      PTSUNNY   67  57  70 SW7       29.76S
CHETEK         PTSUNNY   67  60  77 CALM      29.75S
LADYSMITH      MOSUNNY   69  59  72 SW6       29.77F
EAU CLAIRE     TSTM      70  60  70 SW9       29.76R
MENOMONIE      CLOUDY    71  59  65 SW8       29.74S
NEW RICHMOND   PTSUNNY   70  58  65 SW13G18   29.74S
OSCEOLA        CLOUDY    70  59  69 SW9       29.76S
$$

WIZ003>005-009-010-017-018-260100-
NORTH CENTRAL WISCONSIN

CITY           SKY/WX    TMP DP  RH WIND       PRES   REMARKS
MANITOWISH WTR CLOUDY    64  58  80 W10G18    29.76R
ARBOR VITAE    CLOUDY    67  58  73 W14G20    29.76S
WOODRUFF       CLOUDY    67  58  73 W14G20    29.76S
RHINELANDER    MOSUNNY   69  57  65 W17G28    29.76F
6HR MIN TEMP:  63; 6HR MAX TEMP:  70;

EAGLE RIVER    CLOUDY    66  57  72 W9        29.76R
LAND O LAKES   CLOUDY    66  58  75 W8        29.76R
PHILLIPS       CLOUDY    65  58  77 SW9       29.76S
TOMAHAWK       PTSUNNY   70  57  63 W7        29.77S
MEDFORD        PTSUNNY   68  60  75 W7        29.77S
MERRILL        PTSUNNY   70  61  73 W5        29.77F
$$

WIZ029-030-035-036-043>047-260100-
CENTRAL WISCONSIN

CITY           SKY/WX    TMP DP  RH WIND       PRES   REMARKS
WAUSAU         MOSUNNY   71  60  68 SW7       29.76R
6HR MIN TEMP:  67; 6HR MAX TEMP:  74; 6HR PCP: TRACE;

MOSINEE        PTSUNNY   72  63  73 SW18      29.80R
MARSHFIELD     CLOUDY    70  59  68 SW12      29.79R
6HR MIN TEMP:  67; 6HR MAX TEMP:  76;

STEVENS POINT  RAIN      66  61  84 SW15G23   29.81R
WAUPACA        LGT RAIN  73  65  77 SW9       29.78S
WAUTOMA        NOT AVBL
WISC RAPIDS    RAIN      66  60  81 W13       29.81F
6HR MIN TEMP:  65; 6HR MAX TEMP:  79; 6HR PCP:  0.31;

CAMP DOUGLAS   LGT RAIN  70  66  88 W5        29.79S
$$

WIZ011>013-019>022-031-037>040-048>050-260100-
NORTHEAST WISCONSIN

CITY           SKY/WX    TMP DP  RH WIND       PRES   REMARKS
ANTIGO         MOSUNNY   66  60  80 W7        29.78S
SHAWANO        PTSUNNY   77  61  56 SW6       29.76S
OCONTO         PTSUNNY   75  61  62 SW8       29.76R
STURGEON BAY   MOSUNNY   73  61  64 SW13      29.80R
6HR MIN TEMP:  64; 6HR MAX TEMP:  75;

GREEN BAY      PTSUNNY   75  63  66 SW12      29.78R
6HR MIN TEMP:  71; 6HR MAX TEMP:  78;

MANITOWOC      NOT AVBL
APPLETON       PTSUNNY   73  61  64 SW15      29.80R
CLINTONVILLE   MOSUNNY   75  59  57 SW10      29.77R
OSHKOSH        PTSUNNY   76  61  59 SW13      29.80R
6HR MIN TEMP:  72; 6HR MAX TEMP:  77;

$$

WIZ032>034-041-042-053>061-260100-
SOUTHWEST WISCONSIN

CITY           SKY/WX    TMP DP  RH WIND       PRES   REMARKS
LA CROSSE      MOSUNNY   74  63  68 SW5       29.76F
6HR MIN TEMP:  65; 6HR MAX TEMP:  81; 6HR PCP:  0.21;

SPARTA         MOSUNNY   67  60  78 CALM      29.80F
VIROQUA        MOSUNNY   75  58  55 SW13G29   29.81S
BOSCOBEL       MOSUNNY   79  61  53 SW12G22   29.80F HX  80
6HR MIN TEMP:  73; 6HR MAX TEMP:  81;

PRAIRIE DU CHI MOSUNNY   77  59  55 S10       29.80F
PLATTEVILLE    MOSUNNY   76  63  64 S16G25    29.85S
$$

WIZ056-057-062-063-064-067-068-260100-
SOUTH CENTRAL WISCONSIN

CITY           SKY/WX    TMP DP  RH WIND       PRES   REMARKS
REEDSBURG      PTSUNNY   75  61  62 SW13G20   29.80F
BARABOO/DELLS  MOSUNNY   75  58  57 SW10G21   29.82S
LONE ROCK      NOT AVBL
MINERAL POINT  PTSUNNY   75  59  57 SW16G24   29.85S
MADISON        PTSUNNY   76  60  57 SW9       29.84S
6HR MIN TEMP:  71; 6HR MAX TEMP:  79;

MIDDLETON      PTSUNNY   78  58  50 SW16G22   29.85S
WATERTOWN      PTSUNNY   75  62  64 SW14G22   29.85R
MONROE         MOSUNNY   77  61  57 SW16G23   29.87S
JANESVILLE     MOSUNNY   79  61  53 SW17G25   29.86F HX  80
$$

WIZ051-052-058>065-066-070>072-260100-
SOUTHEAST WISCONSIN

CITY           SKY/WX    TMP DP  RH WIND       PRES   REMARKS
MILWAUKEE      PTSUNNY   76  60  57 SW21G28   29.87R
6HR MIN TEMP:  73; 6HR MAX TEMP:  79; 6HR PCP: TRACE;

WAUKESHA       MOSUNNY   73  59  60 SW12G25   29.89R
MILWAUKEE/TIMM PTSUNNY   77  57  50 SW14G28   29.87R
RACINE         MOSUNNY   77  60  55 SW20G28   29.90R
6HR MIN TEMP:  74; 6HR MAX TEMP:  79;

BURLINGTON     MOSUNNY   75  60  59 SW18G26   29.89R
KENOSHA        MOSUNNY   77  61  57 SW15      29.89S
6HR MIN TEMP:  69; 6HR MAX TEMP:  79; 6HR PCP:  0.02;

FOND DU LAC    SUNNY     76  60  57 SW15G25   29.82R
6HR MIN TEMP:  69; 6HR MAX TEMP:  77; 6HR PCP: TRACE;

SHEBOYGAN      MOSUNNY   76  61  59 SW14G24   29.83R
6HR MIN TEMP:  70; 6HR MAX TEMP:  78; 6HR PCP: TRACE;

WEST BEND      MOSUNNY   77  59  53 SW15G24   29.85R
JUNEAU         MOSUNNY   75  62  63 S17G24    29.86R
$$

LSZ147-162-260100-
LAKE SUPERIOR

STATION/POSITION TIME  TEMP    WIND        PRES    WAVE
                       AIR SEA DIR/SP/G            HT/PER
                 (UTC) (F)     (DEG/KT/KT) (MB)    (FT/S)
W MID LAKE BUOY  2250   40 36   20/ 10/ 12 1068.0R   3/ 5
DEVILS ISLAND    2300   42      70/  9/ 10 1076.0R
PORT WING        2340   44     340/  1/  2 1075.0S
SAXON HARBOR     2300   48        CALM     1068.0R
$$

LMZ867-665-643>646-260100-
LAKE MICHIGAN

STATION/POSITION TIME  TEMP    WIND        PRES    WAVE
                       AIR SEA DIR/SP/G            HT/PER
                 (UTC) (F)     (DEG/KT/KT) (MB)    (FT/S)
CHAMBERS ISLAND  2300   71     200/  3/ 10 1075.0R
N MID LAKE BUOY  2250   42 37  200/ 16/ 19 1079.0S   4/ 6
NORTHPORT PIER   2200   58     160/  4/  9 1075.0R
SISTER BAY       2317   72     230/ 12/ 18   N/A
KEWAUNEE LAKESHO 2300          250/ 13/ 17 1077.0F
SHEBOYGAN LAKESH 2300          210/ 15/ 19   N/A
PORT WASHINGTON  2200   80     240/  9/ 15   N/A
ATWATER BUOY     2300   73 45  210/ 17/ 21   N/A
MILWAUKEE LAKESH 2300   76     220/ 16/ 21   N/A
S MID LAKE BUOY  2250   46 38  200/ 12/ 12   N/A     2/ 5
KENOSHA   LAKESH 2300   78     220/ 12/ 23   N/A
$$

TC  - TEMPERATURE IN CELSIUS
VSB - VISIBILITY IN STATUTE MILES
WCI - WIND CHILL INDEX
HX  - HEAT INDEX




USA.gov is the U.S. government's official web portal to all federal, state and local government web resources and services.